GW4733 Weather Reports


time (UTC)temp
C
wind
direction
speed
KPH
gust
KPH
rain 1hr
cm
rain 24hr
cm
rain mn
cm
humidity
%
barometer
mb
20260504120248 11 313 4.8 6.4 0.00 0.00 0.00 56 1014.8
20260504110715 8 109 1.6 1.6 0.00 0.00 0.00 72 1015.0
20260504110212 8 109 0.0 1.6 0.00 0.00 0.00 70 1015.3
20260504100130 7 108 0.0 1.6 0.00 0.00 0.00 77 1015.1
20260504081523 6 108 0.0 0.0 0.00 0.00 0.00 79 1015.3
20260504081019 6 108 0.0 0.0 0.00 0.00 0.00 80 1015.3
20260504080515 7 108 1.6 1.6 0.00 0.00 0.00 78 1015.3
20260504050335 4 310 0.0 0.0 0.00 0.00 0.00 83 1016.1
20260504045832 5 310 0.0 0.0 0.00 0.00 0.00 80 1016.2
20260504045331 4 310 0.0 0.0 0.00 0.00 0.00 81 1016.1
20260504044829 5 310 0.0 0.0 0.00 0.00 0.00 81 1016.3
20260504044326 5 310 0.0 0.0 0.00 0.00 0.00 78 1016.4
20260504043824 5 310 0.0 0.0 0.00 0.00 0.00 81 1016.2
20260504043320 4 310 0.0 0.0 0.00 0.00 0.00 81 1016.3
20260504042818 4 310 1.6 1.6 0.00 0.00 0.00 82 1016.0
20260504042314 5 310 0.0 0.0 0.00 0.00 0.00 81 1016.2
20260504041810 5 310 0.0 0.0 0.00 0.00 0.00 80 1016.1
20260504041306 5 310 0.0 0.0 0.00 0.00 0.00 78 1016.2
20260504040803 5 310 0.0 0.0 0.00 0.00 0.00 78 1016.0
20260504040300 6 310 0.0 0.0 0.00 0.00 0.00 73 1016.1
20260504035756 6 310 0.0 0.0 0.00 0.00 0.00 75 1016.0
20260504035254 6 310 0.0 0.0 0.00 0.00 0.00 76 1016.0
20260504034751 6 310 0.0 0.0 0.00 0.00 0.00 74 1015.8
20260504034248 6 310 0.0 1.6 0.00 0.00 0.00 71 1015.9
20260504033745 5 310 0.0 0.0 0.00 0.00 0.00 75 1015.8
20260504033243 5 310 0.0 0.0 0.00 0.00 0.00 78 1015.9
20260504032740 6 310 0.0 0.0 0.00 0.00 0.00 75 1015.7
20260504032237 6 310 0.0 0.0 0.00 0.00 0.00 74 1015.7
20260504031733 6 310 0.0 0.0 0.00 0.00 0.00 71 1015.8
20260504031231 6 310 0.0 0.0 0.00 0.00 0.00 69 1015.9
20260504030726 6 310 0.0 0.0 0.00 0.00 0.00 68 1015.7
20260504030224 7 310 0.0 0.0 0.00 0.00 0.00 68 1015.8
20260504025720 7 310 0.0 0.0 0.00 0.00 0.00 68 1015.8
20260504025217 7 310 0.0 0.0 0.00 0.00 0.00 67 1015.4
20260504024715 8 310 0.0 0.0 0.00 0.00 0.00 65 1015.6
20260504024211 7 310 0.0 0.0 0.00 0.00 0.00 65 1015.4
20260504023708 7 310 0.0 0.0 0.00 0.00 0.00 66 1015.4
20260504023203 7 310 0.0 0.0 0.00 0.00 0.00 68 1015.6
20260504022700 7 310 0.0 0.0 0.00 0.00 0.00 65 1015.2
20260504022156 7 310 0.0 0.0 0.00 0.00 0.00 65 1015.3
20260504021654 8 309 0.0 0.0 0.00 0.00 0.00 63 1015.4
20260504021150 8 309 0.0 0.0 0.00 0.00 0.00 59 1015.3
20260504020647 8 309 0.0 0.0 0.00 0.00 0.00 60 1015.5
20260504020143 8 309 0.0 0.0 0.00 0.00 0.00 59 1015.4
20260504015640 8 309 0.0 0.0 0.00 0.00 0.00 56 1015.4
20260504015137 8 309 0.0 0.0 0.00 0.00 0.00 55 1015.2
20260504014632 8 309 0.0 1.6 0.00 0.00 0.00 60 1015.4
20260504014130 8 310 0.0 0.0 0.00 0.00 0.00 63 1015.4
20260504013627 8 309 1.6 3.2 0.00 0.00 0.00 59 1015.4
20260504013124 9 309 0.0 0.0 0.00 0.00 0.00 60 1015.2
20260504012621 10 309 0.0 0.0 0.00 0.00 0.00 52 1015.2
20260504012120 10 309 0.0 0.0 0.00 0.00 0.00 54 1015.1
20260504011616 10 309 0.0 0.0 0.00 0.00 0.00 53 1014.9
20260504011112 11 309 0.0 0.0 0.00 0.00 0.00 48 1015.1
20260504010608 11 309 0.0 1.6 0.00 0.00 0.00 47 1015.1
20260504010104 11 309 0.0 0.0 0.00 0.00 0.00 43 1015.2
20260504005601 11 309 0.0 0.0 0.00 0.00 0.00 40 1015.0
20260504005058 11 309 0.0 0.0 0.00 0.00 0.00 41 1015.1
20260504004556 11 309 0.0 0.0 0.00 0.00 0.00 40 1014.9
20260504004053 11 309 0.0 0.0 0.00 0.00 0.00 43 1015.0
20260504003549 11 309 0.0 0.0 0.00 0.00 0.00 44 1014.9
20260504003046 12 309 0.0 3.2 0.00 0.00 0.00 43 1014.9
20260504002542 13 309 0.0 0.0 0.00 0.00 0.00 40 1014.8
20260504002040 13 309 1.6 3.2 0.00 0.00 0.00 35 1014.8
20260504001538 13 309 1.6 4.8 0.00 0.00 0.00 34 1014.8
20260504001034 13 309 1.6 3.2 0.00 0.00 0.00 34 1014.6
20260504000531 13 309 0.0 4.8 0.00 0.00 0.00 34 1014.9
20260504000028 14 309 0.0 0.0 0.00 0.00 0.00 36 1014.5
20260503235526 14 309 1.6 3.2 0.00 0.00 0.00 35 1014.7
20260503235023 14 309 3.2 4.8 0.00 0.00 0.00 35 1014.6
20260503234521 14 306 6.4 6.4 0.00 0.00 0.00 36 1014.6
20260503234019 15 304 6.4 11.3 0.00 0.00 0.00 36 1014.5
20260503233515 15 313 8.0 11.3 0.00 0.00 0.00 34 1014.5
20260503233011 15 318 11.3 14.5 0.00 0.00 0.00 33 1014.4
20260503232508 15 308 12.9 17.7 0.00 0.00 0.00 32 1014.4
20260503232006 15 295 14.5 17.7 0.00 0.00 0.00 33 1014.4
20260503231503 16 300 14.5 17.7 0.00 0.00 0.00 33 1014.3
20260503231000 16 331 12.9 17.7 0.00 0.00 0.00 33 1014.2
20260503230456 16 283 16.1 17.7 0.00 0.00 0.00 32 1014.4
20260503225954 16 326 14.5 22.5 0.00 0.00 0.00 35 1014.3
20260503225450 16 321 12.9 14.5 0.00 0.00 0.00 30 1014.2
20260503224946 16 317 12.9 14.5 0.00 0.00 0.00 34 1014.3
20260503224443 16 348 11.3 14.5 0.00 0.00 0.00 30 1014.3
20260503223941 16 278 17.7 22.5 0.00 0.00 0.00 31 1014.2
20260503223439 16 294 22.5 27.4 0.00 0.00 0.00 32 1014.2
20260503222934 16 305 14.5 17.7 0.00 0.00 0.00 31 1014.3
20260503222433 16 308 12.9 17.7 0.00 0.00 0.00 33 1014.3
20260503221931 16 310 22.5 25.7 0.00 0.00 0.00 30 1014.4
20260503221429 16 306 27.4 29.0 0.00 0.00 0.00 30 1014.3
20260503220925 16 296 11.3 16.1 0.00 0.00 0.00 31 1014.5
20260503220421 16 288 14.5 22.5 0.00 0.00 0.00 33 1014.4
20260503215919 16 305 11.3 14.5 0.00 0.00 0.00 33 1014.3
20260503215415 16 312 11.3 12.9 0.00 0.00 0.00 33 1014.4
20260503214913 16 313 16.1 16.1 0.00 0.00 0.00 33 1014.3
20260503214410 17 292 16.1 29.0 0.00 0.00 0.00 31 1014.5
20260503213908 17 298 11.3 12.9 0.00 0.00 0.00 31 1014.4
20260503213406 17 318 6.4 16.1 0.00 0.00 0.00 30 1014.5
20260503212902 17 292 14.5 16.1 0.00 0.00 0.00 32 1014.4
20260503212400 16 322 22.5 24.1 0.00 0.00 0.00 32 1014.4
20260503211857 17 305 16.1 17.7 0.00 0.00 0.00 31 1014.6
20260503211353 16 303 12.9 16.1 0.00 0.00 0.00 31 1014.4
20260503210848 16 296 9.7 11.3 0.00 0.00 0.00 30 1014.3
20260503210346 15 286 9.7 16.1 0.00 0.00 0.00 30 1014.5
20260503205841 16 289 16.1 24.1 0.00 0.00 0.00 32 1014.4
20260503205338 17 312 9.7 12.9 0.00 0.00 0.00 30 1014.5
20260503204834 16 308 11.3 17.7 0.00 0.00 0.00 33 1014.5
20260503204332 17 304 12.9 14.5 0.00 0.00 0.00 31 1014.6
20260503203829 16 309 4.8 9.7 0.00 0.00 0.00 28 1014.6
20260503203326 16 326 11.3 17.7 0.00 0.00 0.00 29 1014.6
20260503202823 16 311 22.5 30.6 0.00 0.00 0.00 30 1014.5
20260503202321 17 304 14.5 25.7 0.00 0.00 0.00 30 1014.6
20260503201819 16 298 9.7 22.5 0.00 0.00 0.00 29 1014.6
20260503201316 17 310 14.5 20.9 0.00 0.00 0.00 30 1014.7
20260503200813 16 299 14.5 16.1 0.00 0.00 0.00 31 1014.8
20260503200309 16 309 12.9 16.1 0.00 0.00 0.00 32 1014.9
20260503195807 15 307 12.9 17.7 0.00 0.00 0.00 33 1015.1
20260503195304 16 311 9.7 12.9 0.00 0.00 0.00 35 1015.1
20260503194800 16 321 17.7 17.7 0.00 0.00 0.00 32 1015.3
20260503194256 16 330 11.3 12.9 0.00 0.00 0.00 30 1015.2
20260503193752 16 305 14.5 16.1 0.00 0.00 0.00 29 1015.3
20260503193249 16 340 12.9 22.5 0.00 0.00 0.00 33 1015.4
20260503192744 16 326 22.5 25.7 0.00 0.00 0.00 30 1015.5
20260503192239 16 314 16.1 25.7 0.00 0.00 0.00 33 1015.6
20260503191737 16 296 8.0 11.3 0.00 0.00 0.00 32 1015.6
20260503191234 15 317 12.9 24.1 0.00 0.00 0.00 32 1015.7
20260503190731 15 315 16.1 20.9 0.00 0.00 0.00 31 1015.6
20260503190227 15 318 9.7 20.9 0.00 0.00 0.00 31 1015.8
20260503185725 15 349 12.9 20.9 0.00 0.00 0.00 29 1015.8
20260503185220 16 296 22.5 25.7 0.00 0.00 0.00 34 1015.8
20260503184715 15 292 12.9 17.7 0.00 0.00 0.00 35 1016.0
20260503184211 15 317 11.3 16.1 0.00 0.00 0.00 29 1016.0
20260503183708 15 297 11.3 22.5 0.00 0.00 0.00 32 1016.1
20260503183205 15 313 17.7 29.0 0.00 0.00 0.00 34 1016.0
20260503182704 15 300 22.5 35.4 0.00 0.00 0.00 30 1016.0
20260503182202 15 280 11.3 16.1 0.00 0.00 0.00 34 1016.2
20260503181658 14 338 27.4 33.8 0.00 0.00 0.00 33 1016.1
20260503181155 15 298 8.0 29.0 0.00 0.00 0.00 31 1016.3
20260503180651 15 320 17.7 20.9 0.00 0.00 0.00 36 1016.2
20260503180150 15 318 14.5 30.6 0.00 0.00 0.00 34 1016.3
20260503175646 14 336 22.5 27.4 0.00 0.00 0.00 35 1016.6
20260503175144 14 321 20.9 25.7 0.00 0.00 0.00 33 1016.4
20260503174640 15 312 9.7 22.5 0.00 0.00 0.00 38 1016.4
20260503174137 14 309 9.7 14.5 0.00 0.00 0.00 34 1016.6
20260503173632 15 356 16.1 22.5 0.00 0.00 0.00 33 1016.8
20260503173129 13 319 14.5 17.7 0.00 0.00 0.00 39 1016.7
20260503172626 13 332 14.5 27.4 0.00 0.00 0.00 38 1016.8
20260503172124 13 325 19.3 25.7 0.00 0.00 0.00 39 1016.8
20260503171620 13 304 17.7 25.7 0.00 0.00 0.00 35 1016.7
20260503171117 13 313 22.5 33.8 0.00 0.00 0.00 39 1017.0
20260503170614 13 303 11.3 24.1 0.00 0.00 0.00 39 1017.1
20260503170110 13 303 25.7 29.0 0.00 0.00 0.00 38 1017.0
20260503151006 11 320 8.0 14.5 0.00 0.00 0.00 47 1018.2
20260503150502 11 320 20.9 22.5 0.00 0.00 0.00 46 1018.1
20260503131355 7 322 14.5 20.9 0.00 0.00 0.00 55 1018.3
20260503130853 8 312 16.1 17.7 0.00 0.00 0.00 56 1018.3
20260503130350 7 313 12.9 14.5 0.00 0.00 0.00 59 1018.5